Torna al catalogo

FENGYUN 1C DEB

AttivoPO
NORAD 30892·DEBRIS·🇨🇳 China

Lanciato May 10, 1999 da Taiyuan Satellite Launch Center

Loading…

Prossimi Passaggi (prossime 24 ore)

TLE

In scadenzaSource: Space-Track

Epoca: Sep 7, 2026, 15:17 UTC

1 30892U 99025AYE 26250.63707440  .00000386  00000-0  20718-3 0  9991
2 30892  99.6925 223.3894 0038237 157.9401 202.3428 14.19333474681178

Traccia FENGYUN 1C DEB in tempo reale con AllMySat

Download on the App Store